Погода в Акку

Казахстан     51°28′10″N   77°46′52″E
В апреле 2022 года жителям России запретили посещать сайт meteo.paraplan.net по решению Генеральной прокуратуры. Аудитория сайта уменьшилась в 10 раз. Владельцы сайта не видят смысла в поддержке погодного сервера в таких условиях. Сайт будет закрыт в октябре.
темп.,
°C
ветер,
м/с
пор.,
м/с
влажн.,
%
обл.,
%
осадки,
мм/ч
давл.,
гПа
погр.,
м
4 октября, вт
вт400:00+3всв47470 0.0 1032109
03:00+1св44530 0.0 103360
06:000св34650 0.0 103456
09:00+3св45560 0.0 1035267
12:00+9ссв44380 0.0 1034876
15:00+11ссв45290 0.0 10341168
18:00+8с44335 0.0 103459
21:00+5с334069 0.0 103630
5 октября, ср
ср500:00+3с22455 0.0 103610
03:00+2сз33505 0.0 103617
06:00+2зсз335037 0.0 103625
09:00+5з3540100 0.0 1037180
12:00+11з562996 0.0 1036616
15:00+13з562769 0.0 1034837
18:00+11зюз333539 0.0 103436
21:00+9з33435 0.0 103529
6 октября, чт
чт600:00+8з334945 0.0 103427
03:00+7зсз3357100 0.0 103433
06:00+6зсз3361100 0.0 103439
09:00+9зсз3451100 0.0 1034139
12:00+15зсз3435100 0.0 1032600
15:00+17зсз443094 0.0 10311062
18:00+14сз2237100 0.0 103013
21:00+13з1141100 0.0 103010
7 октября, пт
пт700:00+10сз114999 0.0 103010
03:00+8зсз115392 0.0 102910
06:00+7зюз116099 0.0 102910
09:00+13ююз114091 0.0 102892
12:00+17ю2232100 0.0 1027744
15:00+19ю222992 0.0 10251104
18:00+15ююв3336100 0.0 102416
21:00+12ююв4744100 0.0 102492
8 октября, сб
сб800:00+11ююв4947100 0.0 1023137
03:00+10ююв51051100 0.0 1021152
06:00+10ююв51053100 0.0 1019153
09:00+13ююв6944100 0.0 1018225
12:00+20ююз6827100 0.0 1015716
15:00+23юз7922100 0.0 10131914
18:00+19ююз4428100 0.0 101142
21:00+16ююз453195 0.0 101058